Location: Newark
(13.4819°N, 12.8431°E)
Time: 05:55:08
(UTC+00:00)

LightSail 2 - Visible Passes

Search period start: 21 October 2019 00:00
Search period end: 31 October 2019 00:00
Orbit: 707 x 722 km, 24.0° (Epoch: 19 October)

Date Brightness Start Highest point End Pass type
(mag) Time Alt. Az. Time Alt. Az. Time Alt. Az.
21 Oct 5.1 18:24:56 10° WNW 18:29:49 68° N 18:29:49 68° N visible
22 Oct 5.4 17:27:24 10° WNW 17:32:25 52° NNE 17:36:04 18° E visible
22 Oct 7.3 19:12:59 10° W 19:15:05 24° W 19:15:05 24° W visible
23 Oct 5.2 18:15:16 10° WNW 18:20:24 73° SSW 18:21:23 56° SE visible
24 Oct 5.1 17:17:37 10° WNW 17:22:46 83° NNE 17:27:46 11° ESE visible
24 Oct 7.1 19:03:48 10° W 19:06:49 25° SW 19:06:49 25° SW visible
25 Oct 6.1 18:05:49 10° W 18:10:38 41° SSW 18:13:16 23° SSE visible
26 Oct 5.7 17:07:58 10° WNW 17:13:01 58° SSW 17:18:05 10° SE visible
26 Oct 7.4 18:55:17 10° WSW 18:58:27 16° SSW 18:58:50 16° SSW visible
27 Oct 7.1 17:56:47 10° WSW 18:00:49 23° SSW 18:04:53 10° SSE visible
28 Oct 6.8 16:58:37 10° W 17:03:11 33° SSW 17:07:47 10° SE visible
29 Oct 7.8 17:48:46 10° SW 17:51:00 13° SSW 17:53:14 10° S visible
30 Oct 7.8 04:30:15 10° S 04:32:57 14° SSE 04:35:38 10° ESE visible
